Ord, NE

3:54 PM CDT on May 21, 2018 (GMT -0500)
Sharp

Weather History for KODX - May, 2013

Change the Weather History Date:

Wednesday, May 22, 2013

  Actual Average Record
Temperature  
Mean Temperature 54 °F 61 °F  
Max Temperature 61 °F 74 °F 89 °F (2012)
Min Temperature 46 °F 49 °F 36 °F (2001)
Degree Days  
Heating Degree Days 11 5  
Month to date heating degree days 211 181  
Since 1 July heating degree days 6813 6534  
Cooling Degree Days 0 2  
Month to date cooling degree days 32 21  
Year to date cooling degree days 33 23  
Growing Degree Days 3 (Base 50)    
Moisture  
Dew Point 45 °F    
Average Humidity 79    
Maximum Humidity 93    
Minimum Humidity 64    
Precipitation  
Precipitation 0.00 in 0.14 in 1.52 in (1922)
Month to date precipitation 2.95 2.51  
Year to date precipitation 7.69 7.36  
Sea Level Pressure  
Sea Level Pressure 29.91 in    
Wind  
Wind Speed 14 mph (NNW)    
Max Wind Speed 23 mph    
Max Gust Speed 30 mph    
Visibility 10 miles    
Events      
T = Trace of Precipitation, MM = Missing Value Source: NWS Daily Summary

Daily Weather History Graph

Daily Weather History Graph

Search for Another Location

Airport or City:

Astronomy

May. 22, 2013 Rise Set
Actual Time 6:09 AM CDT 8:55 PM CDT
Civil Twilight 5:37 AM CDT 9:28 PM CDT
Nautical Twilight 4:56 AM CDT 10:09 PM CDT
Astronomical Twilight 4:10 AM CDT 10:55 PM CDT
Moon 6:17 PM CDT (5/22) 4:17 AM CDT (5/22)
Length of Visible Light 15h 50m
Length of Day
14h 45m
Waxing Gibbous, 91% of the Moon is Illuminated
May 22
Waxing Gibbous
May 24
Full
May 31
Last Quarter
Jun 8
New
Jun 16
First Quarter

Hourly Weather History & Observations

Time (CDT) Temp. Windchill Dew Point Humidity Pressure Visibility Wind Dir Wind Speed Gust Speed Precip Events Conditions
12:53 AM 46.9 °F - 43.0 °F 86% 29.81 in 10.0 mi NW 17.3 mph - N/A   Partly Cloudy
1:53 AM 46.0 °F 39.6 °F 43.0 °F 89% 29.82 in 10.0 mi NW 15.0 mph - N/A   Clear
2:11 AM 46.4 °F 39.5 °F 42.8 °F 87% 29.82 in 10.0 mi NNW 17.3 mph 24.2 mph N/A   Mostly Cloudy
2:53 AM 46.9 °F - 43.0 °F 86% 29.85 in 10.0 mi NW 13.8 mph - N/A   Overcast
3:15 AM 46.4 °F 40.1 °F 42.8 °F 87% 29.84 in 10.0 mi NNW 15.0 mph - N/A   Overcast
3:53 AM 46.0 °F 41.0 °F 44.1 °F 93% 29.86 in 10.0 mi NW 10.4 mph - N/A   Overcast
4:05 AM 46.4 °F 41.1 °F 44.6 °F 93% 29.84 in 9.0 mi NNW 11.5 mph 18.4 mph N/A   Overcast
4:53 AM 46.9 °F - 43.0 °F 86% 29.86 in 10.0 mi NNW 12.7 mph - N/A   Overcast
5:11 AM 46.4 °F 40.7 °F 42.8 °F 87% 29.84 in 10.0 mi NW 12.7 mph - N/A   Overcast
5:40 AM 46.4 °F 40.7 °F 42.8 °F 87% 29.85 in 10.0 mi NW 12.7 mph - N/A   Overcast
5:53 AM 46.0 °F 41.0 °F 44.1 °F 93% 29.86 in 10.0 mi NW 10.4 mph - N/A   Overcast
6:27 AM 46.4 °F 40.7 °F 42.8 °F 87% 29.85 in 10.0 mi NW 12.7 mph - N/A   Overcast
6:53 AM 46.9 °F - 43.0 °F 86% 29.87 in 10.0 mi NW 16.1 mph - N/A   Overcast
7:53 AM 48.0 °F - 44.1 °F 86% 29.88 in 10.0 mi NW 13.8 mph - N/A   Overcast
8:09 AM 48.2 °F - 44.6 °F 87% 29.86 in 10.0 mi NNW 16.1 mph 23.0 mph N/A   Overcast
8:24 AM 48.2 °F - 44.6 °F 87% 29.87 in 10.0 mi NW 18.4 mph 25.3 mph N/A   Overcast
8:32 AM 48.2 °F - 44.6 °F 87% 29.87 in 10.0 mi NW 16.1 mph 24.2 mph N/A   Overcast
8:53 AM 48.9 °F - 44.1 °F 83% 29.88 in 10.0 mi NW 19.6 mph 23.0 mph N/A   Overcast
9:03 AM 48.2 °F - 44.6 °F 87% 29.87 in 10.0 mi NW 19.6 mph 27.6 mph N/A   Overcast
9:53 AM 51.1 °F - 45.0 °F 80% 29.89 in 10.0 mi NW 18.4 mph 27.6 mph N/A   Overcast
10:53 AM 52.0 °F - 45.0 °F 77% 29.90 in 10.0 mi NNW 16.1 mph 24.2 mph N/A   Overcast
11:53 AM 55.9 °F - 46.9 °F 72% 29.90 in 10.0 mi NNW 19.6 mph 26.5 mph N/A   Overcast
12:53 PM 57.0 °F - 46.9 °F 69% 29.91 in 10.0 mi NNW 18.4 mph 25.3 mph N/A   Overcast
1:53 PM 57.0 °F - 46.9 °F 69% 29.91 in 10.0 mi NNW 12.7 mph 23.0 mph N/A   Overcast
2:53 PM 59.0 °F - 48.9 °F 69% 29.91 in 10.0 mi NW 18.4 mph 24.2 mph N/A   Overcast
3:53 PM 60.1 °F - 48.9 °F 67% 29.91 in 10.0 mi North 13.8 mph - N/A   Overcast
4:53 PM 59.0 °F - 48.0 °F 67% 29.92 in 10.0 mi NNW 13.8 mph - N/A   Overcast
5:11 PM 60.8 °F - 48.2 °F 63% 29.91 in 10.0 mi North 13.8 mph 21.9 mph N/A   Overcast
5:42 PM 57.2 °F - 48.2 °F 72% 29.92 in 10.0 mi North 13.8 mph 23.0 mph N/A   Overcast
5:53 PM 57.9 °F - 48.9 °F 72% 29.94 in 10.0 mi North 12.7 mph 21.9 mph N/A   Overcast
6:53 PM 55.9 °F - 48.0 °F 75% 29.96 in 10.0 mi NNW 15.0 mph - N/A   Overcast
7:53 PM 54.0 °F - 46.9 °F 77% 29.99 in 10.0 mi North 15.0 mph 21.9 mph N/A   Overcast
8:53 PM 53.1 °F - 46.0 °F 77% 30.01 in 10.0 mi North 12.7 mph - N/A   Overcast
9:53 PM 51.1 °F - 46.9 °F 86% 30.05 in 10.0 mi North 8.1 mph - N/A   Overcast
10:02 PM 51.8 °F - 46.4 °F 82% 30.03 in 10.0 mi NNW 8.1 mph - N/A   Overcast
10:24 PM 51.8 °F - 46.4 °F 82% 30.05 in 10.0 mi NNW 8.1 mph - N/A   Overcast
10:53 PM 51.1 °F - 46.9 °F 86% 30.08 in 10.0 mi North 10.4 mph - N/A   Overcast
11:29 PM 51.8 °F - 46.4 °F 82% 30.07 in 10.0 mi NNW 10.4 mph - N/A   Overcast
11:53 PM 50.0 °F - 46.0 °F 86% 30.09 in 10.0 mi NNW 9.2 mph - N/A   Overcast